Weather History for Monroe, MI

Change the Weather History Date:

Monday, March 24, 2014

  Actual Average Record
Temperature  
Mean Temperature 24 °F -  
Max Temperature 32 °F 47 °F 74 °F (1988)
Min Temperature 17 °F 28 °F 6 °F (1940)
Degree Days  
Heating Degree Days 40    
Moisture  
Dew Point 11 °F    
Average Humidity 59    
Maximum Humidity 80    
Minimum Humidity 43    
Precipitation  
Precipitation 0.00 in - - ()
Sea Level Pressure  
Sea Level Pressure 30.23 in    
Wind  
Wind Speed 3 mph (West)    
Max Wind Speed 15 mph    
Max Gust Speed 23 mph    
Visibility 10 miles    
Events      
Averages and records for this station are not official NWS values.
T = Trace of Precipitation, MM = Missing Value Source: NWS Daily Summary

Daily Weather History Graph

Daily Weather History Graph

Search for Another Location

Airport:

Trip Planner

Search our weather history database for the weather conditions in past years. The results will help you decide how hot, cold, wet, or windy it might be!

Date:

Astronomy

Mar. 24, 2014 Rise Set
Actual Time 7:30 AM EDT 7:50 PM EDT
Civil Twilight 7:02 AM EDT 8:18 PM EDT
Nautical Twilight 6:29 AM EDT 8:51 PM EDT
Astronomical Twilight 5:55 AM EDT 9:24 PM EDT
Moon 3:04 AM EDT (3/24) 1:09 PM EDT (3/24)
Length of Visible Light 13h 16m
Length of Day
12h 20m
Last Quarter, 43% of the Moon is Illuminated
Mar 24
Last Quarter
Mar 30
New
Apr 7
First Quarter
Apr 15
Full
Apr 22
Last Quarter

Hourly Weather History & Observations

Time (EDT) Temp. Windchill Dew Point Humidity Pressure Visibility Wind Dir Wind Speed Gust Speed Precip Events Conditions
12:13 AM 24.8 °F - 8.6 °F 50% 30.32 in 10.0 mi Calm Calm - N/A   Mostly Cloudy
12:33 AM 23.0 °F - 10.4 °F 59% 30.32 in 10.0 mi Calm Calm - N/A   Scattered Clouds
12:53 AM 21.2 °F - 10.4 °F 63% 30.31 in 10.0 mi Calm Calm - N/A   Clear
1:13 AM 21.2 °F - 12.2 °F 68% 30.31 in 10.0 mi Calm Calm - N/A   Mostly Cloudy
1:34 AM 21.2 °F - 12.2 °F 68% 30.31 in 10.0 mi Calm Calm - N/A   Mostly Cloudy
1:54 AM 21.2 °F - 12.2 °F 68% 30.31 in 10.0 mi Calm Calm - N/A   Scattered Clouds
2:14 AM 21.2 °F - 12.2 °F 68% 30.31 in 10.0 mi Calm Calm - N/A   Clear
2:34 AM 21.2 °F - 14.0 °F 74% 30.31 in 10.0 mi Calm Calm - N/A   Clear
2:54 AM 21.2 °F - 15.8 °F 80% 30.31 in 10.0 mi Calm Calm - N/A   Clear
3:14 AM 21.2 °F - 14.0 °F 74% 30.31 in 10.0 mi Calm Calm - N/A   Clear
3:34 AM 19.4 °F - 14.0 °F 80% 30.31 in 10.0 mi Calm Calm - N/A   Clear
3:54 AM 19.4 °F - 14.0 °F 80% 30.31 in 10.0 mi Calm Calm - N/A   Clear
4:14 AM 19.4 °F - 12.2 °F 74% 30.30 in 10.0 mi Calm Calm - N/A   Clear
4:35 AM 19.4 °F - 12.2 °F 74% 30.30 in 10.0 mi Calm Calm - N/A   Clear
4:55 AM 19.4 °F - 12.2 °F 74% 30.30 in 10.0 mi Calm Calm - N/A   Clear
5:15 AM 19.4 °F - 12.2 °F 74% 30.31 in 10.0 mi Calm Calm - N/A   Clear
5:35 AM 19.4 °F - 10.4 °F 68% 30.31 in 10.0 mi Calm Calm - N/A   Clear
5:55 AM 19.4 °F - 10.4 °F 68% 30.31 in 10.0 mi Calm Calm - N/A   Clear
6:15 AM 17.6 °F - 10.4 °F 73% 30.31 in 10.0 mi Calm Calm - N/A   Clear
6:35 AM 17.6 °F - 10.4 °F 73% 30.31 in 10.0 mi Calm Calm - N/A   Clear
6:55 AM 17.6 °F - 10.4 °F 73% 30.32 in 10.0 mi Calm Calm - N/A   Clear
7:15 AM 17.6 °F 9.3 °F 10.4 °F 73% 30.32 in 10.0 mi NW 5.8 mph - N/A   Clear
7:36 AM 17.6 °F - 10.4 °F 73% 30.32 in 10.0 mi Calm Calm - N/A   Clear
7:56 AM 17.6 °F - 10.4 °F 73% 30.32 in 10.0 mi Calm Calm - N/A   Clear
8:16 AM 17.6 °F - 10.4 °F 73% 30.32 in 10.0 mi Calm Calm - N/A   Clear
8:36 AM 19.4 °F - 10.4 °F 68% 30.32 in 10.0 mi Calm Calm - N/A   Clear
8:56 AM 19.4 °F - 8.6 °F 63% 30.31 in 10.0 mi Calm Calm - N/A   Clear
9:16 AM 19.4 °F - 8.6 °F 63% 30.32 in 10.0 mi Calm Calm - N/A   Clear
9:36 AM 19.4 °F - 8.6 °F 63% 30.32 in 10.0 mi Calm Calm - N/A   Clear
9:56 AM 21.2 °F - 8.6 °F 58% 30.31 in 10.0 mi Calm Calm - N/A   Clear
10:16 AM 21.2 °F - 8.6 °F 58% 30.31 in 10.0 mi Calm Calm - N/A   Clear
10:36 AM 23.0 °F - 8.6 °F 54% 30.29 in 10.0 mi Calm Calm - N/A   Clear
10:52 AM 23.0 °F - 6.8 °F 50% 30.29 in 10.0 mi Calm Calm - N/A   Clear
11:12 AM 23.0 °F - 6.8 °F 50% 30.28 in 10.0 mi Calm Calm - N/A   Clear
11:32 AM 24.8 °F - 6.8 °F 46% 30.28 in 10.0 mi Calm Calm - N/A   Clear
11:52 AM 24.8 °F - 5.0 °F 43% 30.28 in 10.0 mi Calm Calm - N/A   Clear
12:12 PM 26.6 °F - 6.8 °F 43% 30.27 in 10.0 mi Calm Calm - N/A   Mostly Cloudy
12:32 PM 26.6 °F - 6.8 °F 43% 30.27 in 10.0 mi Calm Calm - N/A   Overcast
12:52 PM 26.6 °F - 8.6 °F 47% 30.26 in 10.0 mi Calm Calm - N/A   Overcast
1:12 PM 28.4 °F 21.2 °F 8.6 °F 43% 30.26 in 10.0 mi WNW 6.9 mph - N/A   Mostly Cloudy
1:32 PM 28.4 °F 19.1 °F 10.4 °F 47% 30.25 in 10.0 mi WSW 10.4 mph 17.3 mph N/A   Mostly Cloudy
1:53 PM 28.4 °F 20.4 °F 8.6 °F 43% 30.24 in 10.0 mi SW 8.1 mph 23.0 mph N/A   Mostly Cloudy
2:13 PM 28.4 °F 18.0 °F 10.4 °F 47% 30.23 in 10.0 mi West 12.7 mph 18.4 mph N/A   Scattered Clouds
2:33 PM 28.4 °F 19.1 °F 10.4 °F 47% 30.22 in 10.0 mi West 10.4 mph 18.4 mph N/A   Mostly Cloudy
2:53 PM 28.4 °F 17.0 °F 12.2 °F 51% 30.20 in 10.0 mi WSW 15.0 mph 19.6 mph N/A   Overcast
3:13 PM 30.2 °F 21.3 °F 12.2 °F 47% 30.18 in 10.0 mi WSW 10.4 mph 16.1 mph N/A   Overcast
3:33 PM 30.2 °F 19.8 °F 12.2 °F 47% 30.18 in 10.0 mi WSW 13.8 mph 17.3 mph N/A   Mostly Cloudy
3:53 PM 28.4 °F 18.0 °F 12.2 °F 51% 30.17 in 10.0 mi WNW 12.7 mph 20.7 mph N/A   Overcast
4:13 PM 28.4 °F 17.0 °F 14.0 °F 55% 30.17 in 10.0 mi West 15.0 mph 18.4 mph N/A   Overcast
4:34 PM 30.2 °F 19.8 °F 15.8 °F 55% 30.15 in 10.0 mi WSW 13.8 mph - N/A   Overcast
4:54 PM 30.2 °F 20.8 °F 15.8 °F 55% 30.14 in 10.0 mi SW 11.5 mph - N/A   Overcast
5:14 PM 30.2 °F 20.2 °F 15.8 °F 55% 30.14 in 10.0 mi WSW 12.7 mph 18.4 mph N/A   Overcast
5:34 PM 30.2 °F 19.8 °F 14.0 °F 51% 30.13 in 10.0 mi West 13.8 mph 17.3 mph N/A   Overcast
5:54 PM 30.2 °F 20.8 °F 14.0 °F 51% 30.13 in 10.0 mi West 11.5 mph - N/A   Mostly Cloudy
6:14 PM 32.0 °F 22.5 °F 12.2 °F 44% 30.12 in 10.0 mi West 12.7 mph 19.6 mph N/A   Mostly Cloudy
6:34 PM 30.2 °F 20.2 °F 12.2 °F 47% 30.12 in 10.0 mi West 12.7 mph - N/A   Mostly Cloudy
6:54 PM 30.2 °F 19.8 °F 12.2 °F 47% 30.12 in 10.0 mi West 13.8 mph - N/A   Mostly Cloudy
7:14 PM 30.2 °F 20.8 °F 12.2 °F 47% 30.11 in 10.0 mi West 11.5 mph - N/A   Mostly Cloudy
7:35 PM 30.2 °F 19.8 °F 12.2 °F 47% 30.11 in 10.0 mi West 13.8 mph - N/A   Scattered Clouds
7:55 PM 30.2 °F 20.8 °F 12.2 °F 47% 30.11 in 10.0 mi West 11.5 mph - N/A   Scattered Clouds
8:15 PM 28.4 °F 19.7 °F 12.2 °F 51% 30.10 in 10.0 mi West 9.2 mph - N/A   Clear
8:35 PM 28.4 °F 19.1 °F 12.2 °F 51% 30.10 in 10.0 mi West 10.4 mph - N/A   Clear
8:55 PM 28.4 °F 19.1 °F 12.2 °F 51% 30.11 in 10.0 mi WNW 10.4 mph 16.1 mph N/A   Clear
9:15 PM 28.4 °F 18.0 °F 10.4 °F 47% 30.11 in 10.0 mi West 12.7 mph - N/A   Clear
9:35 PM 28.4 °F 19.7 °F 10.4 °F 47% 30.11 in 10.0 mi WNW 9.2 mph - N/A   Clear
9:55 PM 26.6 °F 19.1 °F 12.2 °F 55% 30.11 in 10.0 mi WNW 6.9 mph - N/A   Clear
10:15 PM 26.6 °F - 12.2 °F 55% 30.10 in 10.0 mi Calm Calm - N/A   Clear
10:35 PM 26.6 °F - 12.2 °F 55% 30.10 in 10.0 mi Calm Calm - N/A   Clear
10:55 PM 26.6 °F - 12.2 °F 55% 30.10 in 10.0 mi Calm Calm - N/A   Clear
11:16 PM 26.6 °F - 15.8 °F 64% 30.09 in 10.0 mi Calm Calm - N/A   Clear
11:36 PM 24.8 °F - 15.8 °F 69% 30.09 in 10.0 mi Calm Calm - N/A   Clear
11:56 PM 24.8 °F - 15.8 °F 69% 30.09 in 10.0 mi Calm Calm - N/A   Clear